Weather Roundup
Issued by NWS

Home | Current Version | Previous Version | Text Only | Print | Product List | Glossary On
Versions: 1 2 3 4 5 6 7 8 9 10 11 12 13 14 15 16 17 18 19 20 21 22 23 24 25 26 27 28 29 30 31 32 33 34 35 36 37 38 39 40 41 42 43 44 45 46 47 48 49 50
577
NZUS93 KARX 140359
HRRWXR

CURRENT HOURLY OBSERVATIONS ACROSS
MUCH OF THE UPPER MISSISSIPPI VALLEY
NATIONAL WEATHER SERVICE LA CROSSE WI
1000 PM CST SAT FEB 13 2016


...SOUTHEAST MINNESOTA...


CITY           SKY/WX    TMP DP  RH WIND       PRES   REMARKS
ROCHESTER      CLOUDY     3  -7  63 SE9       30.33F WCI -12
ROCHESTER/MAYO CLOUDY     4  -7  59 SE6       30.35F WCI  -7
WINONA         CLOUDY     5  -6  61 SE3       30.43S
AUSTIN         CLOUDY     7  -2  66 S5        30.33F WCI  -2
ALBERT LEA     CLOUDY     9  -2  61 SE12      30.30F WCI  -6
DODGE CENTER   CLOUDY     5  -6  61 SE12      30.31F WCI -11
PRESTON        CLOUDY     1 -10  58 SE5       30.35F WCI  -8
OWATONNA       CLOUDY     7  -8  51 SE13      30.31F WCI  -9
FARIBAULT      NOT AVBL
$$

...ELSEWHERE IN MINNESOTA...


CITY           SKY/WX    TMP DP  RH WIND       PRES   REMARKS
MINNEAPOLIS    MOCLDY     7  -7  52 SE10      30.35F WCI  -8
INTNL FALLS    CLOUDY    -9 -16  71 E7        30.24F WCI -24
DULUTH         CLOUDY    -2 -14  56 SE6       30.27F WCI -14
RED WING       NOT AVBL
REDWOOD FALLS  CLOUDY    10   3  73 SE18      30.23F WCI  -8
MANKATO        CLOUDY     9   0  66 SE14      30.30F WCI  -8
WORTHINGTON    CLOUDY     9   3  78 SE18      30.16F WCI -10
FAIRMONT       CLOUDY    10   1  67 SE18      30.25F WCI  -8
$$

...SOUTHWEST WISCONSIN...


CITY           SKY/WX    TMP DP  RH WIND       PRES   REMARKS
LA CROSSE      CLOUDY     3  -9  57 SE7       30.42F WCI  -9
PRAIRIE DU CHI CLOUDY     6  -7  55 SE3       30.44S
BOSCOBEL       CLOUDY     1  -8  66 CALM      30.45F
LONE ROCK      NOT AVBL
PLATTEVILLE    CLOUDY     7  -4  61 E6        30.41F WCI  -3
FORT MC COY    CLOUDY    -6 -12  75 CALM      30.43F
VIROQUA        FAIR       4 -11  51 SE7       30.37S WCI  -9
WIS DELLS      CLOUDY    -1 -11  61 S3        30.42F
$$

...ELSEWHERE IN WISCONSIN...


CITY           SKY/WX    TMP DP  RH WIND       PRES   REMARKS
MILWAUKEE      PTCLDY     7  -5  57 W5        30.47F WCI  -2
MADISON        MOCLDY     3  -5  69 CALM      30.44F
GREEN BAY      CLOUDY    -2 -11  65 S5        30.45F WCI -12
EAU CLAIRE     NOT AVBL
BLACK RVR FLS  FAIR     -10 -17  71 CALM      30.42F
MEDFORD        CLOUDY   -12 -16  79 CALM      30.34S
WAUSAU         CLOUDY    -4 -10  75 CALM      30.38F
WIS RAPIDS     CLOUDY    -4 -12  68 CALM      30.42F
MARSHFIELD     CLOUDY    -2 -12  62 CALM      30.36F
RICE LAKE      CLOUDY    -5 -14  63 CALM      30.38S
$$

...NORTHEAST IOWA...


CITY           SKY/WX    TMP DP  RH WIND       PRES   REMARKS
WATERLOO       CLOUDY    12   0  58 SE9       30.38S WCI   0
DUBUQUE        CLOUDY     9  -2  61 E6        30.39F WCI  -1
DECORAH        NOT AVBL
MASON CITY     CLOUDY     8  -2  63 SE13      30.33F WCI  -8
CHARLES CITY   CLOUDY     9  -4  56 SE10      30.37S WCI  -6
OELWEIN        CLOUDY    10   0  61 SE9       30.38S WCI  -2
$$

...ELSEWHERE IN IOWA...


CITY           SKY/WX    TMP DP  RH WIND       PRES   REMARKS
DES MOINES     LGT SNOW  14   9  80 SE10      30.33F WCI   1
IOWA CITY      CLOUDY    17  -2  43 SE12      30.42F WCI   4
FORT DODGE     CLOUDY    12   5  73 SE9       30.29F WCI   0
MARSHALLTOWN   CLOUDY    16   3  56 SE14      30.35S WCI   2
CEDAR RAPIDS   CLOUDY    16   1  51 SE9       30.38F WCI   4
$$

...NORTHERN ILLINOIS...


CITY           SKY/WX    TMP DP  RH WIND       PRES   REMARKS
CHICAGO-OHARE  MOCLDY    11  -4  51 N6        30.47F WCI   1
CHICAGO-MIDWAY CLOUDY    14  -4  44 CALM      30.48F
MOLINE         CLOUDY    17  -1  45 SE8       30.44F WCI   7
ROCKFORD       CLOUDY     9   0  67 CALM      30.47F
PEORIA         CLOUDY    18  -1  43 SE5       30.45F WCI  11
$$

NOTE: "FAIR" INDICATES FEW OR NO CLOUDS BELOW 12,000 FEET WITH NO
SIGNIFICANT WEATHER AND/OR OBSTRUCTIONS TO VISIBILITY. WIND
SPEEDS ARE IN MILES-PER-HOUR.




USA.gov is the U.S. government's official web portal to all federal, state and local government web resources and services.